Time,TemperatureF,DewpointF,PressureIn,WindDirection,WindDirectionDegrees,WindSpeedMPH,WindSpeedGustMPH,Humidity,HourlyPrecipIn,Conditions,Clouds,dailyrainin,SolarRadiationWatts/m^2,SoftwareType,DateUTC
2013-01-07 00:00:00,38.9,24.1,29.94,NNE,13,0.0,3.0,55,0.00,,,0.00,0,LWC V2.00 B727,2013-01-07 07:00:00,
2013-01-07 00:05:00,39.5,24.2,29.94,East,81,1.0,3.0,54,0.00,,,0.00,0,LWC V2.00 B727,2013-01-07 07:05:00,
2013-01-07 00:10:00,39.1,24.3,29.94,East,84,2.0,6.0,55,0.00,,,0.00,0,LWC V2.00 B727,2013-01-07 07:10:00,
2013-01-07 00:15:00,38.5,24.2,29.94,ESE,109,4.0,5.0,56,0.00,,,0.00,0,LWC V2.00 B727,2013-01-07 07:15:00,
2013-01-07 00:20:00,38.2,24.3,29.94,ESE,111,2.0,2.0,57,0.00,,,0.00,0,LWC V2.00 B727,2013-01-07 07:20:00,
2013-01-07 00:25:00,39.8,25.0,29.94,ESE,116,2.0,3.0,55,0.00,,,0.00,0,LWC V2.00 B727,2013-01-07 07:25:00,
2013-01-07 00:30:00,41.9,25.1,29.93,ESE,116,1.0,2.0,51,0.00,,,0.00,0,LWC V2.00 B727,2013-01-07 07:30:00,
2013-01-07 00:35:00,43.0,25.2,29.93,ESE,116,1.0,2.0,49,0.00,,,0.00,0,LWC V2.00 B727,2013-01-07 07:35:00,
2013-01-07 00:40:00,43.6,25.2,29.93,ESE,116,1.0,2.0,48,0.00,,,0.00,0,LWC V2.00 B727,2013-01-07 07:40:00,
2013-01-07 00:45:00,43.8,24.9,29.93,ESE,116,0.0,0.0,47,0.00,,,0.00,0,LWC V2.00 B727,2013-01-07 07:45:00,
2013-01-07 00:50:00,43.8,24.9,29.92,ESE,116,0.0,1.0,47,0.00,,,0.00,0,LWC V2.00 B727,2013-01-07 07:50:00,
2013-01-07 00:55:00,43.3,24.4,29.92,ESE,116,1.0,1.0,47,0.00,,,0.00,0,LWC V2.00 B727,2013-01-07 07:55:00,
2013-01-07 01:00:00,43.3,24.9,29.92,ESE,116,1.0,2.0,48,0.00,,,0.00,0,LWC V2.00 B727,2013-01-07 08:00:00,
2013-01-07 01:05:00,43.4,24.5,29.92,ESE,116,1.0,2.0,47,0.00,,,0.00,0,LWC V2.00 B727,2013-01-07 08:05:00,
2013-01-07 01:10:00,43.8,24.4,29.91,ESE,116,1.0,2.0,46,0.00,,,0.00,0,LWC V2.00 B727,2013-01-07 08:10:00,
2013-01-07 01:15:00,44.0,24.6,29.91,ESE,116,0.0,0.0,46,0.00,,,0.00,0,LWC V2.00 B727,2013-01-07 08:15:00,
2013-01-07 01:20:00,43.6,24.7,29.91,ESE,116,0.0,0.0,47,0.00,,,0.00,0,LWC V2.00 B727,2013-01-07 08:20:00,
2013-01-07 01:25:00,43.1,24.3,29.91,ESE,116,0.0,0.0,47,0.00,,,0.00,0,LWC V2.00 B727,2013-01-07 08:25:00,
2013-01-07 01:30:00,42.0,24.7,29.91,ESE,116,0.0,0.0,50,0.00,,,0.00,0,LWC V2.00 B727,2013-01-07 08:30:00,
2013-01-07 01:35:00,41.0,24.7,29.92,ESE,116,0.0,1.0,52,0.00,,,0.00,0,LWC V2.00 B727,2013-01-07 08:35:00,
2013-01-07 01:40:00,40.0,24.7,29.92,ESE,116,0.0,1.0,54,0.00,,,0.00,0,LWC V2.00 B727,2013-01-07 08:40:00,
2013-01-07 01:45:00,39.7,24.9,29.92,ESE,116,0.0,1.0,55,0.00,,,0.00,0,LWC V2.00 B727,2013-01-07 08:45:00,
2013-01-07 01:50:00,39.4,25.0,29.93,NE,40,1.0,2.0,56,0.00,,,0.00,0,LWC V2.00 B727,2013-01-07 08:50:00,
2013-01-07 01:55:00,38.7,24.8,29.93,NE,40,0.0,3.0,57,0.00,,,0.00,0,LWC V2.00 B727,2013-01-07 08:55:00,
2013-01-07 02:00:00,38.9,25.0,29.93,NE,40,3.0,3.0,57,0.00,,,0.00,0,LWC V2.00 B727,2013-01-07 09:00:00,
2013-01-07 02:05:00,39.2,24.8,29.93,NE,40,2.0,4.0,56,0.00,,,0.00,0,LWC V2.00 B727,2013-01-07 09:05:00,
2013-01-07 02:10:00,39.8,24.5,29.93,NE,40,3.0,4.0,54,0.00,,,0.00,0,LWC V2.00 B727,2013-01-07 09:10:00,
2013-01-07 02:15:00,41.0,24.3,29.92,NE,40,3.0,5.0,51,0.00,,,0.00,0,LWC V2.00 B727,2013-01-07 09:15:00,
2013-01-07 02:20:00,41.5,23.3,29.92,NE,55,2.0,3.0,48,0.00,,,0.00,0,LWC V2.00 B727,2013-01-07 09:20:00,
2013-01-07 02:25:00,41.9,22.6,29.91,NE,55,3.0,3.0,46,0.00,,,0.00,0,LWC V2.00 B727,2013-01-07 09:25:00,
2013-01-07 02:30:00,41.1,23.9,29.91,ENE,67,2.0,3.0,50,0.00,,,0.00,0,LWC V2.00 B727,2013-01-07 09:30:00,
2013-01-07 02:35:00,40.0,24.7,29.91,ENE,68,2.0,4.0,54,0.00,,,0.00,0,LWC V2.00 B727,2013-01-07 09:35:00,
2013-01-07 02:40:00,40.0,24.7,29.91,ENE,68,0.0,2.0,54,0.00,,,0.00,0,LWC V2.00 B727,2013-01-07 09:40:00,
2013-01-07 02:45:00,40.4,24.2,29.91,ENE,68,1.0,2.0,52,0.00,,,0.00,0,LWC V2.00 B727,2013-01-07 09:45:00,
2013-01-07 02:50:00,40.8,24.1,29.91,ENE,68,2.0,2.0,51,0.00,,,0.00,0,LWC V2.00 B727,2013-01-07 09:50:00,
2013-01-07 02:55:00,40.6,23.9,29.91,NE,34,3.0,4.0,51,0.00,,,0.00,0,LWC V2.00 B727,2013-01-07 09:55:00,
2013-01-07 03:00:00,41.1,25.3,29.91,NNE,33,4.0,4.0,53,0.00,,,0.00,0,LWC V2.00 B727,2013-01-07 10:00:00,
2013-01-07 03:05:00,40.6,23.9,29.91,NNE,33,1.0,2.0,51,0.00,,,0.00,0,LWC V2.00 B727,2013-01-07 10:05:00,
2013-01-07 03:10:00,39.5,23.8,29.91,NNE,33,0.0,1.0,53,0.00,,,0.00,0,LWC V2.00 B727,2013-01-07 10:10:00,
2013-01-07 03:15:00,39.0,23.8,29.91,NNE,33,0.0,1.0,54,0.00,,,0.00,0,LWC V2.00 B727,2013-01-07 10:15:00,
2013-01-07 03:20:00,39.6,24.3,29.91,NNE,33,1.0,2.0,54,0.00,,,0.00,0,LWC V2.00 B727,2013-01-07 10:20:00,
2013-01-07 03:25:00,39.8,24.1,29.91,NNW,343,0.0,3.0,53,0.00,,,0.00,0,LWC V2.00 B727,2013-01-07 10:25:00,
2013-01-07 03:30:00,37.7,23.9,29.91,NNW,343,0.0,0.0,57,0.00,,,0.00,0,LWC V2.00 B727,2013-01-07 10:30:00,
2013-01-07 03:35:00,37.1,23.7,29.91,NNW,343,0.0,1.0,58,0.00,,,0.00,0,LWC V2.00 B727,2013-01-07 10:35:00,
2013-01-07 03:40:00,37.4,23.6,29.92,NNW,343,0.0,2.0,57,0.00,,,0.00,0,LWC V2.00 B727,2013-01-07 10:40:00,
2013-01-07 03:45:00,38.4,23.2,29.92,NNW,343,0.0,0.0,54,0.00,,,0.00,0,LWC V2.00 B727,2013-01-07 10:45:00,
2013-01-07 03:50:00,39.0,22.9,29.92,NNW,343,1.0,2.0,52,0.00,,,0.00,0,LWC V2.00 B727,2013-01-07 10:50:00,
2013-01-07 03:55:00,40.0,22.9,29.92,NNW,343,0.0,1.0,50,0.00,,,0.00,0,LWC V2.00 B727,2013-01-07 10:55:00,
2013-01-07 04:00:00,40.6,22.5,29.92,NNW,343,0.0,0.0,48,0.00,,,0.00,0,LWC V2.00 B727,2013-01-07 11:00:00,
2013-01-07 04:05:00,40.6,22.0,29.92,NNW,343,2.0,2.0,47,0.00,,,0.00,0,LWC V2.00 B727,2013-01-07 11:05:00,
2013-01-07 04:10:00,39.5,23.3,29.92,ESE,105,2.0,4.0,52,0.00,,,0.00,0,LWC V2.00 B727,2013-01-07 11:10:00,
2013-01-07 04:15:00,38.7,23.5,29.92,ESE,115,2.0,3.0,54,0.00,,,0.00,0,LWC V2.00 B727,2013-01-07 11:15:00,
2013-01-07 04:20:00,38.6,23.4,29.91,ESE,115,1.0,2.0,54,0.00,,,0.00,0,LWC V2.00 B727,2013-01-07 11:20:00,
2013-01-07 04:25:00,38.3,23.6,29.91,ESE,110,4.0,7.0,55,0.00,,,0.00,0,LWC V2.00 B727,2013-01-07 11:25:00,
2013-01-07 04:30:00,39.2,23.5,29.90,ESE,109,0.0,2.0,53,0.00,,,0.00,0,LWC V2.00 B727,2013-01-07 11:30:00,
2013-01-07 04:35:00,38.9,23.2,29.90,ESE,108,1.0,2.0,53,0.00,,,0.00,0,LWC V2.00 B727,2013-01-07 11:35:00,
2013-01-07 04:40:00,39.1,23.4,29.90,ESE,108,2.0,3.0,53,0.00,,,0.00,0,LWC V2.00 B727,2013-01-07 11:40:00,
2013-01-07 04:45:00,39.1,23.4,29.89,East,93,2.0,3.0,53,0.00,,,0.00,0,LWC V2.00 B727,2013-01-07 11:45:00,
2013-01-07 04:50:00,39.2,23.5,29.89,East,90,2.0,2.0,53,0.00,,,0.00,0,LWC V2.00 B727,2013-01-07 11:50:00,
2013-01-07 04:55:00,38.7,23.5,29.89,NNE,17,3.0,6.0,54,0.00,,,0.00,0,LWC V2.00 B727,2013-01-07 11:55:00,
2013-01-07 05:00:00,38.2,23.5,29.89,NNE,15,3.0,4.0,55,0.00,,,0.00,0,LWC V2.00 B727,2013-01-07 12:00:00,
2013-01-07 05:05:00,38.1,23.4,29.89,NNE,21,5.0,7.0,55,0.00,,,0.00,0,LWC V2.00 B727,2013-01-07 12:05:00,
2013-01-07 05:10:00,38.6,23.4,29.89,NNE,14,3.0,6.0,54,0.00,,,0.00,0,LWC V2.00 B727,2013-01-07 12:10:00,
2013-01-07 05:15:00,39.2,23.5,29.89,NNE,14,2.0,3.0,53,0.00,,,0.00,0,LWC V2.00 B727,2013-01-07 12:15:00,
2013-01-07 05:20:00,39.0,23.3,29.89,NNE,14,2.0,5.0,53,0.00,,,0.00,0,LWC V2.00 B727,2013-01-07 12:20:00,
2013-01-07 05:25:00,38.9,23.7,29.89,NNE,14,4.0,4.0,54,0.00,,,0.00,0,LWC V2.00 B727,2013-01-07 12:25:00,
2013-01-07 05:30:00,39.0,23.8,29.89,NNE,30,4.0,5.0,54,0.00,,,0.00,0,LWC V2.00 B727,2013-01-07 12:30:00,
2013-01-07 05:35:00,38.9,23.7,29.88,ENE,69,4.0,7.0,54,0.00,,,0.00,0,LWC V2.00 B727,2013-01-07 12:35:00,
2013-01-07 05:40:00,38.5,23.8,29.88,NE,55,1.0,4.0,55,0.00,,,0.00,0,LWC V2.00 B727,2013-01-07 12:40:00,
2013-01-07 05:45:00,38.1,23.8,29.88,NE,46,2.0,3.0,56,0.00,,,0.00,0,LWC V2.00 B727,2013-01-07 12:45:00,
2013-01-07 05:50:00,38.3,23.6,29.88,NE,46,2.0,3.0,55,0.00,,,0.00,0,LWC V2.00 B727,2013-01-07 12:50:00,
2013-01-07 05:55:00,38.7,23.5,29.88,NE,46,4.0,4.0,54,0.00,,,0.00,0,LWC V2.00 B727,2013-01-07 12:55:00,
2013-01-07 06:00:00,39.1,23.4,29.88,NE,46,2.0,3.0,53,0.00,,,0.00,0,LWC V2.00 B727,2013-01-07 13:00:00,
2013-01-07 06:05:00,38.6,23.4,29.87,NE,46,2.0,4.0,54,0.00,,,0.00,0,LWC V2.00 B727,2013-01-07 13:05:00,
2013-01-07 06:10:00,38.5,23.3,29.87,NE,46,3.0,4.0,54,0.00,,,0.00,0,LWC V2.00 B727,2013-01-07 13:10:00,
2013-01-07 06:15:00,39.0,23.3,29.87,NE,46,3.0,4.0,53,0.00,,,0.00,0,LWC V2.00 B727,2013-01-07 13:15:00,
2013-01-07 06:20:00,39.1,23.4,29.87,ENE,78,3.0,7.0,53,0.00,,,0.00,0,LWC V2.00 B727,2013-01-07 13:20:00,
2013-01-07 06:25:00,38.2,23.5,29.87,ENE,69,4.0,5.0,55,0.00,,,0.00,0,LWC V2.00 B727,2013-01-07 13:25:00,
2013-01-07 06:30:00,37.5,23.7,29.87,ENE,69,1.0,3.0,57,0.00,,,0.00,0,LWC V2.00 B727,2013-01-07 13:30:00,
2013-01-07 06:35:00,37.2,23.4,29.88,ENE,69,0.0,0.0,57,0.00,,,0.00,0,LWC V2.00 B727,2013-01-07 13:35:00,
2013-01-07 06:40:00,36.4,23.5,29.88,ENE,69,1.0,1.0,59,0.00,,,0.00,0,LWC V2.00 B727,2013-01-07 13:40:00,
2013-01-07 06:45:00,36.5,24.0,29.88,ENE,69,0.0,1.0,60,0.00,,,0.00,0,LWC V2.00 B727,2013-01-07 13:45:00,
2013-01-07 06:50:00,36.4,23.9,29.88,ENE,69,1.0,1.0,60,0.00,,,0.00,0,LWC V2.00 B727,2013-01-07 13:50:00,
2013-01-07 06:55:00,35.2,23.9,29.88,ENE,69,0.0,1.0,63,0.00,,,0.00,0,LWC V2.00 B727,2013-01-07 13:55:00,
2013-01-07 07:00:00,34.9,24.0,29.88,ENE,69,0.0,0.0,64,0.00,,,0.00,0,LWC V2.00 B727,2013-01-07 14:00:00,
2013-01-07 07:05:00,35.2,23.9,29.89,ENE,69,2.0,2.0,63,0.00,,,0.00,0,LWC V2.00 B727,2013-01-07 14:05:00,
2013-01-07 07:10:00,35.2,23.9,29.89,ENE,69,1.0,3.0,63,0.00,,,0.00,0,LWC V2.00 B727,2013-01-07 14:10:00,
2013-01-07 07:15:00,34.9,23.6,29.89,East,82,2.0,6.0,63,0.00,,,0.00,0,LWC V2.00 B727,2013-01-07 14:15:00,
2013-01-07 07:20:00,34.8,23.5,29.89,East,82,3.0,6.0,63,0.00,,,0.00,0,LWC V2.00 B727,2013-01-07 14:20:00,
2013-01-07 07:25:00,34.5,23.6,29.89,East,80,3.0,5.0,64,0.00,,,0.00,5,LWC V2.00 B727,2013-01-07 14:25:00,
2013-01-07 07:28:00,34.4,23.5,29.89,East,82,5.0,5.0,64,0.00,,,0.00,5,LWC V2.00 B727,2013-01-07 14:28:00,
2013-01-07 07:33:00,34.4,23.5,29.89,East,82,3.0,6.0,64,0.00,,,0.00,7,LWC V2.00 B727,2013-01-07 14:33:00,
2013-01-07 07:38:00,34.7,23.8,29.89,ENE,78,3.0,5.0,64,0.00,,,0.00,11,LWC V2.00 B727,2013-01-07 14:38:00,
2013-01-07 07:43:00,35.0,24.1,29.89,ENE,78,3.0,3.0,64,0.00,,,0.00,12,LWC V2.00 B727,2013-01-07 14:43:00,
2013-01-07 07:48:00,35.6,24.3,29.89,ENE,69,1.0,4.0,63,0.00,,,0.00,14,LWC V2.00 B727,2013-01-07 14:48:00,
2013-01-07 07:53:00,36.2,24.1,29.89,ENE,71,4.0,7.0,61,0.00,,,0.00,16,LWC V2.00 B727,2013-01-07 14:53:00,
2013-01-07 07:58:00,36.7,24.1,29.89,ENE,76,2.0,3.0,60,0.00,,,0.00,19,LWC V2.00 B727,2013-01-07 14:58:00,
2013-01-07 08:03:00,37.2,23.8,29.89,ENE,76,3.0,4.0,58,0.00,,,0.00,21,LWC V2.00 B727,2013-01-07 15:03:00,
2013-01-07 08:08:00,37.5,23.7,29.89,ENE,76,3.0,4.0,57,0.00,,,0.00,23,LWC V2.00 B727,2013-01-07 15:08:00,
2013-01-07 08:13:00,37.6,23.8,29.89,ENE,76,1.0,2.0,57,0.00,,,0.00,26,LWC V2.00 B727,2013-01-07 15:13:00,
2013-01-07 08:18:00,37.7,23.9,29.90,ENE,76,2.0,3.0,57,0.00,,,0.00,28,LWC V2.00 B727,2013-01-07 15:18:00,
2013-01-07 08:23:00,38.0,24.1,29.89,ENE,76,0.0,0.0,57,0.00,,,0.00,137,LWC V2.00 B727,2013-01-07 15:23:00,
2013-01-07 08:28:00,38.5,24.6,29.90,ENE,76,2.0,3.0,57,0.00,,,0.00,153,LWC V2.00 B727,2013-01-07 15:28:00,
2013-01-07 08:33:00,40.0,24.7,29.90,ENE,76,2.0,4.0,54,0.00,,,0.00,167,LWC V2.00 B727,2013-01-07 15:33:00,
2013-01-07 08:38:00,40.6,24.8,29.90,ENE,76,3.0,4.0,53,0.00,,,0.00,179,LWC V2.00 B727,2013-01-07 15:38:00,
2013-01-07 08:43:00,41.3,25.0,29.90,ENE,76,2.0,3.0,52,0.00,,,0.00,190,LWC V2.00 B727,2013-01-07 15:43:00,
2013-01-07 08:48:00,41.9,25.1,29.90,ENE,76,0.0,4.0,51,0.00,,,0.00,211,LWC V2.00 B727,2013-01-07 15:48:00,
2013-01-07 08:53:00,42.2,25.4,29.90,ENE,76,0.0,2.0,51,0.00,,,0.00,225,LWC V2.00 B727,2013-01-07 15:53:00,
2013-01-07 08:58:00,40.4,26.4,29.90,ENE,76,0.0,1.0,57,0.00,,,0.00,239,LWC V2.00 B727,2013-01-07 15:58:00,
2013-01-07 09:03:00,41.0,26.1,29.90,ENE,76,0.0,3.0,55,0.00,,,0.00,255,LWC V2.00 B727,2013-01-07 16:03:00,
2013-01-07 09:08:00,41.5,26.6,29.90,ENE,58,2.0,3.0,55,0.00,,,0.00,269,LWC V2.00 B727,2013-01-07 16:08:00,
2013-01-07 09:13:00,42.0,26.6,29.90,NNE,16,0.0,0.0,54,0.00,,,0.00,281,LWC V2.00 B727,2013-01-07 16:13:00,
2013-01-07 09:18:00,42.4,26.9,29.90,NNE,16,0.0,1.0,54,0.00,,,0.00,295,LWC V2.00 B727,2013-01-07 16:18:00,
2013-01-07 09:23:00,43.1,27.6,29.90,NNE,16,0.0,1.0,54,0.00,,,0.00,311,LWC V2.00 B727,2013-01-07 16:23:00,
2013-01-07 09:28:00,44.4,26.9,29.90,NNE,16,0.0,0.0,50,0.00,,,0.00,323,LWC V2.00 B727,2013-01-07 16:28:00,
2013-01-07 09:33:00,44.9,26.4,29.90,NNE,16,0.0,1.0,48,0.00,,,0.00,338,LWC V2.00 B727,2013-01-07 16:33:00,
2013-01-07 09:38:00,45.1,27.1,29.90,NNE,16,0.0,0.0,49,0.00,,,0.00,352,LWC V2.00 B727,2013-01-07 16:38:00,
2013-01-07 09:43:00,45.6,27.6,29.90,NW,320,2.0,4.0,49,0.00,,,0.00,366,LWC V2.00 B727,2013-01-07 16:43:00,
2013-01-07 09:48:00,45.8,27.2,29.91,NW,320,0.0,2.0,48,0.00,,,0.00,374,LWC V2.00 B727,2013-01-07 16:48:00,
2013-01-07 09:53:00,46.4,26.8,29.91,NW,320,1.0,1.0,46,0.00,,,0.00,388,LWC V2.00 B727,2013-01-07 16:53:00,
2013-01-07 09:58:00,46.4,25.1,29.91,NW,320,0.0,0.0,43,0.00,,,0.00,401,LWC V2.00 B727,2013-01-07 16:58:00,
2013-01-07 10:03:00,46.8,27.1,29.91,NW,317,0.0,4.0,46,0.00,,,0.00,413,LWC V2.00 B727,2013-01-07 17:03:00,
2013-01-07 10:08:00,47.1,26.3,29.91,NW,317,0.0,2.0,44,0.00,,,0.00,425,LWC V2.00 B727,2013-01-07 17:08:00,
2013-01-07 10:13:00,47.4,26.0,29.91,NW,317,0.0,0.0,43,0.00,,,0.00,438,LWC V2.00 B727,2013-01-07 17:13:00,
2013-01-07 10:18:00,47.5,26.1,29.91,NW,317,0.0,2.0,43,0.00,,,0.00,450,LWC V2.00 B727,2013-01-07 17:18:00,
2013-01-07 10:23:00,47.4,26.0,29.91,NW,317,0.0,2.0,43,0.00,,,0.00,459,LWC V2.00 B727,2013-01-07 17:23:00,
2013-01-07 10:28:00,47.8,25.8,29.91,NW,317,0.0,1.0,42,0.00,,,0.00,469,LWC V2.00 B727,2013-01-07 17:28:00,
2013-01-07 10:33:00,48.6,26.6,29.90,NW,317,1.0,2.0,42,0.00,,,0.00,480,LWC V2.00 B727,2013-01-07 17:33:00,
2013-01-07 10:38:00,48.6,26.6,29.90,NW,317,1.0,3.0,42,0.00,,,0.00,490,LWC V2.00 B727,2013-01-07 17:38:00,
2013-01-07 10:43:00,48.8,26.2,29.90,NW,317,0.0,2.0,41,0.00,,,0.00,497,LWC V2.00 B727,2013-01-07 17:43:00,
2013-01-07 10:48:00,49.3,26.0,29.89,NW,317,0.0,2.0,40,0.00,,,0.00,508,LWC V2.00 B727,2013-01-07 17:48:00,
2013-01-07 10:53:00,50.4,25.1,29.89,NW,317,0.0,1.0,37,0.00,,,0.00,517,LWC V2.00 B727,2013-01-07 17:53:00,
2013-01-07 10:58:00,49.8,25.9,29.89,NW,317,1.0,3.0,39,0.00,,,0.00,524,LWC V2.00 B727,2013-01-07 17:58:00,
2013-01-07 11:03:00,49.5,25.0,29.88,NW,316,2.0,4.0,38,0.00,,,0.00,533,LWC V2.00 B727,2013-01-07 18:03:00,
2013-01-07 11:08:00,50.0,26.6,29.88,NW,316,0.0,0.0,40,0.00,,,0.00,540,LWC V2.00 B727,2013-01-07 18:08:00,
2013-01-07 11:13:00,51.0,25.7,29.88,WNW,296,0.0,5.0,37,0.00,,,0.00,545,LWC V2.00 B727,2013-01-07 18:13:00,
2013-01-07 11:18:00,50.3,26.3,29.88,WNW,296,0.0,0.0,39,0.00,,,0.00,552,LWC V2.00 B727,2013-01-07 18:18:00,
2013-01-07 11:23:00,51.2,26.5,29.88,WNW,295,0.0,2.0,38,0.00,,,0.00,557,LWC V2.00 B727,2013-01-07 18:23:00,
2013-01-07 11:28:00,51.9,27.1,29.87,WSW,239,1.0,2.0,38,0.00,,,0.00,563,LWC V2.00 B727,2013-01-07 18:28:00,
2013-01-07 11:33:00,51.2,26.5,29.87,SW,236,2.0,2.0,38,0.00,,,0.00,568,LWC V2.00 B727,2013-01-07 18:33:00,
2013-01-07 11:38:00,51.2,25.8,29.87,South,175,1.0,4.0,37,0.00,,,0.00,573,LWC V2.00 B727,2013-01-07 18:38:00,
2013-01-07 11:43:00,51.2,26.5,29.87,South,176,0.0,2.0,38,0.00,,,0.00,577,LWC V2.00 B727,2013-01-07 18:43:00,
2013-01-07 11:48:00,52.1,26.6,29.87,NW,304,1.0,4.0,37,0.00,,,0.00,582,LWC V2.00 B727,2013-01-07 18:48:00,
2013-01-07 11:53:00,52.9,26.7,29.86,NW,316,0.0,3.0,36,0.00,,,0.00,585,LWC V2.00 B727,2013-01-07 18:53:00,
2013-01-07 11:58:00,52.9,26.0,29.86,SW,221,4.0,5.0,35,0.00,,,0.00,587,LWC V2.00 B727,2013-01-07 18:58:00,
2013-01-07 12:03:00,52.6,27.1,29.86,SW,229,0.0,3.0,37,0.00,,,0.00,589,LWC V2.00 B727,2013-01-07 19:03:00,
2013-01-07 12:08:00,52.5,25.6,29.86,SW,229,0.0,2.0,35,0.00,,,0.00,592,LWC V2.00 B727,2013-01-07 19:08:00,
2013-01-07 12:13:00,52.7,26.5,29.85,SW,231,3.0,3.0,36,0.00,,,0.00,592,LWC V2.00 B727,2013-01-07 19:13:00,
2013-01-07 12:18:00,53.3,26.4,29.85,SW,232,0.0,3.0,35,0.00,,,0.00,594,LWC V2.00 B727,2013-01-07 19:18:00,
2013-01-07 12:23:00,53.5,27.2,29.85,SW,225,3.0,5.0,36,0.00,,,0.00,598,LWC V2.00 B727,2013-01-07 19:23:00,
2013-01-07 12:28:00,54.0,27.0,29.84,WNW,300,3.0,7.0,35,0.00,,,0.00,598,LWC V2.00 B727,2013-01-07 19:28:00,
2013-01-07 12:33:00,54.3,27.2,29.84,West,264,2.0,4.0,35,0.00,,,0.00,594,LWC V2.00 B727,2013-01-07 19:33:00,
2013-01-07 12:38:00,54.1,27.1,29.84,SW,227,2.0,4.0,35,0.00,,,0.00,594,LWC V2.00 B727,2013-01-07 19:38:00,
2013-01-07 12:43:00,53.7,27.4,29.84,SW,223,2.0,4.0,36,0.00,,,0.00,594,LWC V2.00 B727,2013-01-07 19:43:00,
2013-01-07 12:48:00,54.4,27.3,29.83,SSW,207,2.0,7.0,35,0.00,,,0.00,596,LWC V2.00 B727,2013-01-07 19:48:00,
2013-01-07 12:53:00,53.8,26.8,29.83,WSW,252,0.0,4.0,35,0.00,,,0.00,592,LWC V2.00 B727,2013-01-07 19:53:00,
2013-01-07 12:58:00,53.3,26.4,29.83,South,175,0.0,4.0,35,0.00,,,0.00,591,LWC V2.00 B727,2013-01-07 19:58:00,
2013-01-07 13:03:00,53.5,27.2,29.83,SE,136,0.0,3.0,36,0.00,,,0.00,587,LWC V2.00 B727,2013-01-07 20:03:00,
2013-01-07 13:08:00,53.5,27.2,29.82,SW,217,1.0,3.0,36,0.00,,,0.00,585,LWC V2.00 B727,2013-01-07 20:08:00,
2013-01-07 13:13:00,54.1,27.7,29.82,SSW,198,5.0,5.0,36,0.00,,,0.00,582,LWC V2.00 B727,2013-01-07 20:13:00,
2013-01-07 13:18:00,54.3,27.2,29.82,SW,233,3.0,7.0,35,0.00,,,0.00,580,LWC V2.00 B727,2013-01-07 20:18:00,
2013-01-07 13:23:00,55.2,28.0,29.82,WSW,243,4.0,5.0,35,0.00,,,0.00,575,LWC V2.00 B727,2013-01-07 20:23:00,
2013-01-07 13:28:00,55.7,27.8,29.82,SW,225,3.0,4.0,34,0.00,,,0.00,492,LWC V2.00 B727,2013-01-07 20:28:00,
2013-01-07 13:33:00,54.3,27.2,29.81,SW,226,1.0,1.0,35,0.00,,,0.00,557,LWC V2.00 B727,2013-01-07 20:33:00,
2013-01-07 13:39:00,54.3,26.5,29.81,SW,223,2.0,4.0,34,0.00,,,0.00,554,LWC V2.00 B727,2013-01-07 20:39:00,
2013-01-07 13:44:00,55.5,27.6,29.81,NW,306,0.0,3.0,34,0.00,,,0.00,471,LWC V2.00 B727,2013-01-07 20:44:00,
2013-01-07 13:49:00,56.2,27.5,29.81,NW,307,1.0,5.0,33,0.00,,,0.00,515,LWC V2.00 B727,2013-01-07 20:49:00,
2013-01-07 13:54:00,55.7,27.8,29.81,WNW,289,2.0,4.0,34,0.00,,,0.00,519,LWC V2.00 B727,2013-01-07 20:54:00,
2013-01-07 13:59:00,56.0,28.0,29.80,WNW,301,3.0,6.0,34,0.00,,,0.00,531,LWC V2.00 B727,2013-01-07 20:59:00,
2013-01-07 14:04:00,55.4,27.5,29.80,WNW,296,0.0,0.0,34,0.00,,,0.00,508,LWC V2.00 B727,2013-01-07 21:04:00,
2013-01-07 14:09:00,55.7,27.8,29.80,WNW,286,1.0,4.0,34,0.00,,,0.00,519,LWC V2.00 B727,2013-01-07 21:09:00,
2013-01-07 14:14:00,56.2,28.2,29.80,WNW,297,0.0,3.0,34,0.00,,,0.00,508,LWC V2.00 B727,2013-01-07 21:14:00,
2013-01-07 14:19:00,56.0,27.3,29.80,WNW,297,1.0,1.0,33,0.00,,,0.00,501,LWC V2.00 B727,2013-01-07 21:19:00,
2013-01-07 14:24:00,55.8,27.9,29.80,WNW,300,0.0,4.0,34,0.00,,,0.00,471,LWC V2.00 B727,2013-01-07 21:24:00,
2013-01-07 14:29:00,55.4,27.5,29.80,WNW,301,1.0,2.0,34,0.00,,,0.00,403,LWC V2.00 B727,2013-01-07 21:29:00,
2013-01-07 14:34:00,55.4,28.2,29.80,SW,235,2.0,4.0,35,0.00,,,0.00,406,LWC V2.00 B727,2013-01-07 21:34:00,
2013-01-07 14:39:00,55.1,27.9,29.80,SW,231,3.0,3.0,35,0.00,,,0.00,274,LWC V2.00 B727,2013-01-07 21:39:00,
2013-01-07 14:44:00,55.2,28.0,29.80,WSW,245,0.0,4.0,35,0.00,,,0.00,278,LWC V2.00 B727,2013-01-07 21:44:00,
2013-01-07 14:49:00,55.3,27.4,29.80,West,279,0.0,3.0,34,0.00,,,0.00,371,LWC V2.00 B727,2013-01-07 21:49:00,
2013-01-07 14:54:00,55.0,27.9,29.80,West,270,1.0,2.0,35,0.00,,,0.00,279,LWC V2.00 B727,2013-01-07 21:54:00,
2013-01-07 14:59:00,55.1,27.9,29.80,West,269,2.0,8.0,35,0.00,,,0.00,424,LWC V2.00 B727,2013-01-07 21:59:00,
2013-01-07 15:04:00,54.9,28.5,29.80,SSW,194,1.0,2.0,36,0.00,,,0.00,350,LWC V2.00 B727,2013-01-07 22:04:00,
2013-01-07 15:09:00,54.9,27.8,29.80,SSW,205,1.0,5.0,35,0.00,,,0.00,290,LWC V2.00 B727,2013-01-07 22:09:00,
2013-01-07 15:14:00,55.1,28.6,29.81,SSW,208,2.0,2.0,36,0.00,,,0.00,253,LWC V2.00 B727,2013-01-07 22:14:00,
2013-01-07 15:19:00,54.8,27.7,29.81,SW,235,1.0,2.0,35,0.00,,,0.00,274,LWC V2.00 B727,2013-01-07 22:19:00,
2013-01-07 15:24:00,54.6,28.9,29.81,SW,235,0.0,1.0,37,0.00,,,0.00,410,LWC V2.00 B727,2013-01-07 22:24:00,
2013-01-07 15:29:00,55.2,28.7,29.81,WSW,254,0.0,3.0,36,0.00,,,0.00,338,LWC V2.00 B727,2013-01-07 22:29:00,
2013-01-07 15:34:00,55.6,28.4,29.81,North,351,2.0,4.0,35,0.00,,,0.00,227,LWC V2.00 B727,2013-01-07 22:34:00,
2013-01-07 15:39:00,55.8,27.9,29.81,North,350,3.0,6.0,34,0.00,,,0.00,357,LWC V2.00 B727,2013-01-07 22:39:00,
2013-01-07 15:44:00,55.1,28.6,29.81,North,350,1.0,5.0,36,0.00,,,0.00,283,LWC V2.00 B727,2013-01-07 22:44:00,
2013-01-07 15:49:00,55.0,28.5,29.81,NNW,346,4.0,5.0,36,0.00,,,0.00,239,LWC V2.00 B727,2013-01-07 22:49:00,
2013-01-07 15:51:00,54.6,28.2,29.81,NW,323,0.0,5.0,36,0.00,,,0.00,239,LWC V2.00 B727,2013-01-07 22:51:00,
2013-01-07 15:56:00,54.5,28.1,29.81,NW,324,1.0,7.0,36,0.00,,,0.00,209,LWC V2.00 B727,2013-01-07 22:56:00,
2013-01-07 16:01:00,54.2,28.5,29.81,NW,319,0.0,4.0,37,0.00,,,0.00,155,LWC V2.00 B727,2013-01-07 23:01:00,
2013-01-07 16:06:00,54.0,29.0,29.82,NNW,327,0.0,3.0,38,0.00,,,0.00,193,LWC V2.00 B727,2013-01-07 23:06:00,
2013-01-07 16:11:00,53.6,28.6,29.82,North,0,4.0,4.0,38,0.00,,,0.00,183,LWC V2.00 B727,2013-01-07 23:11:00,
2013-01-07 16:16:00,53.5,29.2,29.82,NNW,331,2.0,4.0,39,0.00,,,0.00,199,LWC V2.00 B727,2013-01-07 23:16:00,
2013-01-07 16:21:00,53.2,28.9,29.82,NNW,344,5.0,10.0,39,0.00,,,0.00,181,LWC V2.00 B727,2013-01-07 23:21:00,
2013-01-07 16:26:00,53.0,29.3,29.82,North,355,5.0,7.0,40,0.00,,,0.00,158,LWC V2.00 B727,2013-01-07 23:26:00,
2013-01-07 16:31:00,52.7,29.1,29.82,North,5,1.0,9.0,40,0.00,,,0.00,141,LWC V2.00 B727,2013-01-07 23:31:00,
2013-01-07 16:36:00,52.1,29.1,29.82,North,350,4.0,8.0,41,0.00,,,0.00,118,LWC V2.00 B727,2013-01-07 23:36:00,
2013-01-07 16:41:00,51.7,29.4,29.83,NW,308,3.0,5.0,42,0.00,,,0.00,88,LWC V2.00 B727,2013-01-07 23:41:00,
2013-01-07 16:46:00,51.0,29.3,29.83,NNE,19,3.0,11.0,43,0.00,,,0.00,53,LWC V2.00 B727,2013-01-07 23:46:00,
2013-01-07 16:51:00,50.4,29.3,29.83,North,5,3.0,5.0,44,0.00,,,0.00,47,LWC V2.00 B727,2013-01-07 23:51:00,
2013-01-07 16:56:00,50.1,29.0,29.83,North,350,3.0,9.0,44,0.00,,,0.00,26,LWC V2.00 B727,2013-01-07 23:56:00,
2013-01-07 17:01:00,49.6,29.1,29.84,NNE,17,4.0,6.0,45,0.00,,,0.00,23,LWC V2.00 B727,2013-01-08 00:01:00,
2013-01-07 17:06:00,49.2,29.3,29.84,North,355,7.0,9.0,46,0.00,,,0.00,25,LWC V2.00 B727,2013-01-08 00:06:00,
2013-01-07 17:11:00,48.9,29.0,29.85,NE,35,5.0,6.0,46,0.00,,,0.00,21,LWC V2.00 B727,2013-01-08 00:11:00,
2013-01-07 17:16:00,48.6,29.3,29.85,North,10,1.0,5.0,47,0.00,,,0.00,19,LWC V2.00 B727,2013-01-08 00:16:00,
2013-01-07 17:21:00,48.3,29.0,29.85,NE,39,4.0,6.0,47,0.00,,,0.00,18,LWC V2.00 B727,2013-01-08 00:21:00,
2013-01-07 17:26:00,48.1,29.3,29.85,NNE,22,5.0,5.0,48,0.00,,,0.00,12,LWC V2.00 B727,2013-01-08 00:26:00,
2013-01-07 17:31:00,47.7,29.0,29.85,North,5,2.0,7.0,48,0.00,,,0.00,7,LWC V2.00 B727,2013-01-08 00:31:00,
2013-01-07 17:36:00,47.6,28.9,29.85,NNE,24,6.0,8.0,48,0.00,,,0.00,0,LWC V2.00 B727,2013-01-08 00:36:00,
2013-01-07 17:41:00,47.5,28.8,29.85,NNE,22,5.0,8.0,48,0.00,,,0.00,0,LWC V2.00 B727,2013-01-08 00:41:00,
2013-01-07 17:46:00,47.3,28.6,29.85,NNE,20,6.0,6.0,48,0.00,,,0.00,0,LWC V2.00 B727,2013-01-08 00:46:00,
2013-01-07 17:51:00,47.1,28.9,29.85,NNE,14,6.0,10.0,49,0.00,,,0.00,0,LWC V2.00 B727,2013-01-08 00:51:00,
2013-01-07 17:56:00,47.0,28.8,29.86,NNE,18,4.0,7.0,49,0.00,,,0.00,0,LWC V2.00 B727,2013-01-08 00:56:00,
2013-01-07 18:01:00,46.8,29.2,29.86,North,0,6.0,8.0,50,0.00,,,0.00,0,LWC V2.00 B727,2013-01-08 01:01:00,
2013-01-07 18:06:00,46.5,28.9,29.86,North,355,4.0,8.0,50,0.00,,,0.00,0,LWC V2.00 B727,2013-01-08 01:06:00,
2013-01-07 18:11:00,46.3,29.2,29.86,North,350,4.0,6.0,51,0.00,,,0.00,0,LWC V2.00 B727,2013-01-08 01:11:00,
2013-01-07 18:16:00,46.1,29.0,29.86,NNE,32,4.0,7.0,51,0.00,,,0.00,0,LWC V2.00 B727,2013-01-08 01:16:00,
2013-01-07 18:21:00,45.9,29.3,29.87,NNE,29,2.0,7.0,52,0.00,,,0.00,0,LWC V2.00 B727,2013-01-08 01:21:00,
2013-01-07 18:26:00,45.5,28.9,29.87,NNE,21,4.0,4.0,52,0.00,,,0.00,0,LWC V2.00 B727,2013-01-08 01:26:00,
2013-01-07 18:31:00,45.3,29.2,29.88,NE,35,0.0,2.0,53,0.00,,,0.00,0,LWC V2.00 B727,2013-01-08 01:31:00,
2013-01-07 18:36:00,44.9,29.3,29.88,NE,38,1.0,2.0,54,0.00,,,0.00,0,LWC V2.00 B727,2013-01-08 01:36:00,
2013-01-07 18:42:00,44.8,29.2,29.88,NE,49,3.0,4.0,54,0.00,,,0.00,0,LWC V2.00 B727,2013-01-08 01:42:00,
2013-01-07 18:47:00,44.4,29.3,29.89,NE,49,1.0,2.0,55,0.00,,,0.00,0,LWC V2.00 B727,2013-01-08 01:47:00,
2013-01-07 18:52:00,44.1,29.4,29.89,NE,44,5.0,5.0,56,0.00,,,0.00,0,LWC V2.00 B727,2013-01-08 01:52:00,
2013-01-07 18:57:00,44.2,29.1,29.89,ENE,59,3.0,4.0,55,0.00,,,0.00,0,LWC V2.00 B727,2013-01-08 01:57:00,
2013-01-07 19:02:00,44.1,29.0,29.89,ENE,63,2.0,4.0,55,0.00,,,0.00,0,LWC V2.00 B727,2013-01-08 02:02:00,
2013-01-07 19:07:00,43.8,29.1,29.89,ENE,58,3.0,3.0,56,0.00,,,0.00,0,LWC V2.00 B727,2013-01-08 02:07:00,
2013-01-07 19:12:00,43.6,29.0,29.90,ENE,57,3.0,3.0,56,0.00,,,0.00,0,LWC V2.00 B727,2013-01-08 02:12:00,
2013-01-07 19:17:00,42.9,29.2,29.89,ENE,61,3.0,3.0,58,0.00,,,0.00,0,LWC V2.00 B727,2013-01-08 02:17:00,
2013-01-07 19:22:00,42.5,28.8,29.89,ENE,61,2.0,3.0,58,0.00,,,0.00,0,LWC V2.00 B727,2013-01-08 02:22:00,
2013-01-07 19:27:00,42.7,29.0,29.90,ENE,61,2.0,3.0,58,0.00,,,0.00,0,LWC V2.00 B727,2013-01-08 02:27:00,
2013-01-07 19:32:00,42.8,29.1,29.90,ENE,68,2.0,3.0,58,0.00,,,0.00,0,LWC V2.00 B727,2013-01-08 02:32:00,
2013-01-07 19:37:00,42.6,28.9,29.89,ENE,68,1.0,2.0,58,0.00,,,0.00,0,LWC V2.00 B727,2013-01-08 02:37:00,
2013-01-07 19:42:00,42.7,29.0,29.90,ENE,67,2.0,4.0,58,0.00,,,0.00,0,LWC V2.00 B727,2013-01-08 02:42:00,
2013-01-07 19:47:00,42.7,29.0,29.89,ENE,62,2.0,3.0,58,0.00,,,0.00,0,LWC V2.00 B727,2013-01-08 02:47:00,
2013-01-07 19:52:00,42.8,29.1,29.89,ENE,65,2.0,4.0,58,0.00,,,0.00,0,LWC V2.00 B727,2013-01-08 02:52:00,
2013-01-07 19:57:00,42.9,28.7,29.89,ENE,65,0.0,1.0,57,0.00,,,0.00,0,LWC V2.00 B727,2013-01-08 02:57:00,
2013-01-07 20:02:00,42.3,28.6,29.89,NE,44,1.0,3.0,58,0.00,,,0.00,0,LWC V2.00 B727,2013-01-08 03:02:00,
2013-01-07 20:07:00,41.9,28.6,29.89,NE,44,0.0,3.0,59,0.00,,,0.00,0,LWC V2.00 B727,2013-01-08 03:07:00,
2013-01-07 20:12:00,42.1,28.8,29.89,NE,44,1.0,3.0,59,0.00,,,0.00,0,LWC V2.00 B727,2013-01-08 03:12:00,
2013-01-07 20:17:00,42.0,28.7,29.89,NE,44,2.0,4.0,59,0.00,,,0.00,0,LWC V2.00 B727,2013-01-08 03:17:00,
2013-01-07 20:22:00,42.0,28.7,29.89,NE,43,1.0,2.0,59,0.00,,,0.00,0,LWC V2.00 B727,2013-01-08 03:22:00,
2013-01-07 20:27:00,41.5,28.7,29.90,NE,43,2.0,4.0,60,0.00,,,0.00,0,LWC V2.00 B727,2013-01-08 03:27:00,
2013-01-07 20:32:00,41.5,28.7,29.89,NE,48,1.0,2.0,60,0.00,,,0.00,0,LWC V2.00 B727,2013-01-08 03:32:00,
2013-01-07 20:37:00,41.3,28.9,29.90,NE,48,1.0,3.0,61,0.00,,,0.00,0,LWC V2.00 B727,2013-01-08 03:37:00,
2013-01-07 20:42:00,41.5,28.7,29.90,NE,48,0.0,0.0,60,0.00,,,0.00,0,LWC V2.00 B727,2013-01-08 03:42:00,
2013-01-07 20:47:00,41.4,28.6,29.90,NE,52,3.0,3.0,60,0.00,,,0.00,0,LWC V2.00 B727,2013-01-08 03:47:00,
2013-01-07 20:52:00,41.2,28.8,29.90,ENE,73,2.0,3.0,61,0.00,,,0.00,0,LWC V2.00 B727,2013-01-08 03:52:00,
2013-01-07 20:57:00,41.1,28.7,29.90,ENE,73,1.0,3.0,61,0.00,,,0.00,0,LWC V2.00 B727,2013-01-08 03:57:00,
2013-01-07 21:02:00,40.1,28.5,29.91,ENE,73,3.0,3.0,63,0.00,,,0.00,0,LWC V2.00 B727,2013-01-08 04:02:00,
2013-01-07 21:07:00,39.8,28.6,29.91,ESE,109,0.0,0.0,64,0.00,,,0.00,0,LWC V2.00 B727,2013-01-08 04:07:00,
2013-01-07 21:12:00,39.5,28.7,29.91,East,95,0.0,2.0,65,0.00,,,0.00,0,LWC V2.00 B727,2013-01-08 04:12:00,
2013-01-07 21:17:00,39.8,29.0,29.91,East,80,1.0,3.0,65,0.00,,,0.00,0,LWC V2.00 B727,2013-01-08 04:17:00,
2013-01-07 21:22:00,40.6,29.0,29.91,East,80,0.0,3.0,63,0.00,,,0.00,0,LWC V2.00 B727,2013-01-08 04:22:00,
2013-01-07 21:27:00,40.1,28.5,29.90,East,80,2.0,3.0,63,0.00,,,0.00,0,LWC V2.00 B727,2013-01-08 04:27:00,
2013-01-07 21:32:00,40.0,28.8,29.90,East,80,1.0,2.0,64,0.00,,,0.00,0,LWC V2.00 B727,2013-01-08 04:32:00,
2013-01-07 21:37:00,40.1,28.5,29.90,East,80,0.0,0.0,63,0.00,,,0.00,0,LWC V2.00 B727,2013-01-08 04:37:00,
2013-01-07 21:42:00,40.1,28.5,29.90,East,80,0.0,0.0,63,0.00,,,0.00,0,LWC V2.00 B727,2013-01-08 04:42:00,
2013-01-07 21:47:00,39.9,28.3,29.90,East,80,0.0,0.0,63,0.00,,,0.00,0,LWC V2.00 B727,2013-01-08 04:47:00,
2013-01-07 21:52:00,39.2,28.1,29.90,East,80,0.0,0.0,64,0.00,,,0.00,0,LWC V2.00 B727,2013-01-08 04:52:00,
2013-01-07 21:57:00,38.9,28.2,29.90,ENE,72,1.0,4.0,65,0.00,,,0.00,0,LWC V2.00 B727,2013-01-08 04:57:00,
2013-01-07 22:00:00,38.7,28.3,29.90,NNE,30,4.0,4.0,66,0.00,,,0.00,0,LWC V2.00 B727,2013-01-08 05:00:00,
2013-01-07 22:05:00,38.6,28.2,29.90,NNE,16,2.0,7.0,66,0.00,,,0.00,0,LWC V2.00 B727,2013-01-08 05:05:00,
2013-01-07 22:10:00,39.2,28.4,29.89,NNE,18,3.0,6.0,65,0.00,,,0.00,0,LWC V2.00 B727,2013-01-08 05:10:00,
2013-01-07 22:15:00,39.8,28.6,29.89,North,0,2.0,6.0,64,0.00,,,0.00,0,LWC V2.00 B727,2013-01-08 05:15:00,
2013-01-07 22:20:00,40.0,28.4,29.90,NNE,19,1.0,5.0,63,0.00,,,0.00,0,LWC V2.00 B727,2013-01-08 05:20:00,
2013-01-07 22:25:00,40.2,28.6,29.90,NNE,19,2.0,4.0,63,0.00,,,0.00,0,LWC V2.00 B727,2013-01-08 05:25:00,
2013-01-07 22:30:00,39.4,28.2,29.90,NNE,23,0.0,0.0,64,0.00,,,0.00,0,LWC V2.00 B727,2013-01-08 05:30:00,
2013-01-07 22:35:00,38.3,28.3,29.90,East,90,3.0,6.0,67,0.00,,,0.00,0,LWC V2.00 B727,2013-01-08 05:35:00,
2013-01-07 22:40:00,38.0,28.4,29.91,East,84,6.0,7.0,68,0.00,,,0.00,0,LWC V2.00 B727,2013-01-08 05:40:00,
2013-01-07 22:45:00,38.3,28.3,29.91,East,90,6.0,6.0,67,0.00,,,0.00,0,LWC V2.00 B727,2013-01-08 05:45:00,
2013-01-07 22:50:00,38.8,28.8,29.91,East,79,2.0,5.0,67,0.00,,,0.00,0,LWC V2.00 B727,2013-01-08 05:50:00,
2013-01-07 22:55:00,39.6,28.8,29.91,ENE,78,1.0,3.0,65,0.00,,,0.00,0,LWC V2.00 B727,2013-01-08 05:55:00,
2013-01-07 23:00:00,39.6,28.4,29.92,ENE,78,0.0,3.0,64,0.00,,,0.00,0,LWC V2.00 B727,2013-01-08 06:00:00,
2013-01-07 23:05:00,39.6,28.4,29.92,ENE,78,0.0,0.0,64,0.00,,,0.00,0,LWC V2.00 B727,2013-01-08 06:05:00,
2013-01-07 23:10:00,39.9,28.7,29.91,ENE,78,2.0,3.0,64,0.00,,,0.00,0,LWC V2.00 B727,2013-01-08 06:10:00,
2013-01-07 23:15:00,40.7,28.7,29.91,NE,49,0.0,4.0,62,0.00,,,0.00,0,LWC V2.00 B727,2013-01-08 06:15:00,
2013-01-07 23:20:00,41.3,28.5,29.91,NE,49,0.0,0.0,60,0.00,,,0.00,0,LWC V2.00 B727,2013-01-08 06:20:00,
2013-01-07 23:25:00,40.3,27.9,29.91,NE,49,0.0,2.0,61,0.00,,,0.00,0,LWC V2.00 B727,2013-01-08 06:25:00,
2013-01-07 23:30:00,39.8,28.2,29.91,NE,49,0.0,0.0,63,0.00,,,0.00,0,LWC V2.00 B727,2013-01-08 06:30:00,
2013-01-07 23:35:00,40.4,28.4,29.91,NE,49,0.0,3.0,62,0.00,,,0.00,0,LWC V2.00 B727,2013-01-08 06:35:00,
2013-01-07 23:40:00,40.9,28.5,29.91,NE,49,1.0,4.0,61,0.00,,,0.00,0,LWC V2.00 B727,2013-01-08 06:40:00,
2013-01-07 23:45:00,40.9,28.5,29.91,NE,49,0.0,1.0,61,0.00,,,0.00,0,LWC V2.00 B727,2013-01-08 06:45:00,
2013-01-07 23:50:00,39.2,28.1,29.91,NE,49,1.0,1.0,64,0.00,,,0.00,0,LWC V2.00 B727,2013-01-08 06:50:00,
2013-01-07 23:55:00,38.8,28.1,29.91,NE,49,2.0,2.0,65,0.00,,,0.00,0,LWC V2.00 B727,2013-01-08 06:55:00,